Volver al catálogo

STARLINK-31264

ActivoComunicacionesVLEO
NORAD 58845·PAYLOAD·🇺🇸 United States

Lanzado Jan 24, 2024 desde Vandenberg Space Force Base

Loading…

Próximos Pases (próximas 24 horas)

TLE

ActualizadoSource: CelesTrak SupGP

Época: Sep 15, 2026, 02:27 UTC

1 58845C 24017V   26258.10256944  .00048559  00000+0  14346-2 0  2586
2 58845  53.1566 132.6371 0001133  81.8764  56.7820 15.34369350    11

Sigue STARLINK-31264 en tiempo real con AllMySat

Download on the App Store